IW3HBX-3 Weather Reports


time (UTC)temp
C
wind
direction
speed
KPH
gust
KPH
rain 1hr
cm
rain 24hr
cm
rain mn
cm
humidity
%
barometer
mb
20260502231939 13 225 0.0 0.0 0.00 0.00 0.00 65 1020.8
20260502230939 13 225 0.0 0.0 0.00 0.00 0.00 65 1020.8
20260502230439 14 225 0.0 0.0 0.00 0.00 0.00 65 1020.8
20260502225939 14 225 0.0 0.0 0.00 0.00 0.00 64 1020.8
20260502225439 15 225 0.0 0.0 0.00 0.00 0.00 63 1020.9
20260502224939 15 225 0.0 0.0 0.00 0.00 0.00 63 1020.8
20260502224439 15 225 0.0 0.0 0.00 0.00 0.00 62 1020.9
20260502223939 15 225 0.0 0.0 0.00 0.00 0.00 62 1020.9
20260502223439 15 225 0.0 0.0 0.00 0.00 0.00 61 1020.9
20260502222939 15 225 0.0 0.0 0.00 0.00 0.00 60 1021.1
20260502222438 16 225 0.0 0.0 0.00 0.00 0.00 59 1021.0
20260502221938 16 225 0.0 0.0 0.00 0.00 0.00 58 1021.1
20260502221438 16 225 0.0 0.0 0.00 0.00 0.00 59 1021.0
20260502220938 16 225 0.0 0.0 0.00 0.00 0.00 58 1021.0
20260502220438 16 225 0.0 0.0 0.00 0.00 0.00 58 1021.0
20260502215938 16 225 0.0 0.0 0.00 0.00 0.00 55 1020.9
20260502215438 16 225 0.0 1.6 0.00 0.00 0.00 56 1021.0
20260502214938 16 225 0.0 0.0 0.00 0.00 0.00 56 1021.0
20260502213938 17 225 0.0 1.6 0.00 0.00 0.00 55 1020.9
20260502213438 17 225 1.6 3.2 0.00 0.00 0.00 53 1020.9
20260502212938 17 225 3.2 3.2 0.00 0.00 0.00 53 1020.9
20260502212437 17 225 1.6 3.2 0.00 0.00 0.00 53 1020.9
20260502211937 17 225 1.6 1.6 0.00 0.00 0.00 53 1020.9
20260502211437 17 225 0.0 1.6 0.00 0.00 0.00 54 1021.0
20260502210937 16 225 0.0 0.0 0.00 0.00 0.00 55 1020.9
20260502210437 16 225 0.0 1.6 0.00 0.00 0.00 55 1021.0
20260502205937 16 225 0.0 0.0 0.00 0.00 0.00 56 1021.0
20260502205437 16 225 0.0 0.0 0.00 0.00 0.00 56 1021.0
20260502204937 16 225 0.0 0.0 0.00 0.00 0.00 55 1021.0
20260502204437 16 225 0.0 0.0 0.00 0.00 0.00 56 1021.0
20260502203937 16 225 0.0 0.0 0.00 0.00 0.00 55 1020.9
20260502203437 16 225 0.0 0.0 0.00 0.00 0.00 56 1021.0
20260502202937 16 225 0.0 0.0 0.00 0.00 0.00 55 1021.0
20260502202436 17 228 0.0 0.0 0.00 0.00 0.00 56 1021.1
20260502201936 17 228 0.0 0.0 0.00 0.00 0.00 55 1021.1
20260502201436 17 225 0.0 0.0 0.00 0.00 0.00 55 1021.1
20260502200936 17 225 0.0 0.0 0.00 0.00 0.00 55 1021.1
20260502200436 17 225 0.0 0.0 0.00 0.00 0.00 54 1021.1
20260502195936 17 225 0.0 0.0 0.00 0.00 0.00 54 1021.1
20260502195436 17 225 0.0 0.0 0.00 0.00 0.00 55 1021.1
20260502194936 17 225 0.0 0.0 0.00 0.00 0.00 54 1021.1
20260502194436 17 225 0.0 0.0 0.00 0.00 0.00 53 1021.0
20260502193936 17 225 0.0 0.0 0.00 0.00 0.00 54 1021.1
20260502193436 17 225 0.0 0.0 0.00 0.00 0.00 53 1021.0
20260502192935 17 225 0.0 0.0 0.00 0.00 0.00 54 1021.0
20260502192435 18 225 0.0 0.0 0.00 0.00 0.00 53 1020.9
20260502191935 18 225 0.0 0.0 0.00 0.00 0.00 52 1021.0
20260502190935 18 225 0.0 0.0 0.00 0.00 0.00 50 1020.9
20260502190435 19 225 0.0 0.0 0.00 0.00 0.00 50 1020.9
20260502185935 19 225 0.0 0.0 0.00 0.00 0.00 48 1020.9
20260502185436 19 225 0.0 1.6 0.00 0.00 0.00 48 1020.8
20260502184935 20 225 0.0 0.0 0.00 0.00 0.00 47 1020.8
20260502184435 20 225 0.0 1.6 0.00 0.00 0.00 45 1020.8
20260502183935 20 225 1.6 1.6 0.00 0.00 0.00 45 1020.8
20260502183435 20 225 0.0 0.0 0.00 0.00 0.00 45 1020.7
20260502182935 20 225 1.6 1.6 0.00 0.00 0.00 44 1020.6
20260502182435 20 225 0.0 0.0 0.00 0.00 0.00 44 1020.7
20260502181936 21 225 0.0 1.6 0.00 0.00 0.00 43 1020.6
20260502181436 21 225 1.6 3.2 0.00 0.00 0.00 42 1020.6
20260502180936 21 225 1.6 1.6 0.00 0.00 0.00 41 1020.5
20260502180436 22 226 1.6 3.2 0.00 0.00 0.00 41 1020.6
20260502170439 23 221 4.8 6.4 0.00 0.00 0.00 36 1020.5
20260502164015 24 230 4.8 9.7 0.00 0.00 0.00 35 1020.7
20260502163941 24 230 4.8 9.7 0.00 0.00 0.00 35 1020.7
20260502163441 25 227 4.8 8.0 0.00 0.00 0.00 34 1020.8
20260502162941 25 230 3.2 6.4 0.00 0.00 0.00 34 1020.8
20260502162441 25 225 4.8 8.0 0.00 0.00 0.00 34 1020.9
20260502161941 24 229 6.4 9.7 0.00 0.00 0.00 35 1020.8
20260502161442 25 236 4.8 8.0 0.00 0.00 0.00 35 1020.9
20260502160942 25 237 4.8 8.0 0.00 0.00 0.00 34 1020.9
20260502160442 25 249 4.8 9.7 0.00 0.00 0.00 34 1021.0
20260502151944 25 226 1.6 4.8 0.00 0.00 0.00 33 1021.4
20260502151445 25 226 3.2 6.4 0.00 0.00 0.00 32 1021.4
20260502150945 25 209 1.6 4.8 0.00 0.00 0.00 31 1021.4
20260502150445 25 232 6.4 9.7 0.00 0.00 0.00 32 1021.5
20260502130451 24 265 4.8 12.9 0.00 0.00 0.00 33 1023.0
20260502123452 24 228 4.8 11.3 0.00 0.00 0.00 33 1023.3
20260502122953 24 232 1.6 3.2 0.00 0.00 0.00 33 1023.3
20260502122453 23 243 9.7 12.9 0.00 0.00 0.00 34 1023.5
20260502121953 24 259 4.8 6.4 0.00 0.00 0.00 33 1023.5
20260502121453 23 235 9.7 14.5 0.00 0.00 0.00 34 1023.6
20260502120954 24 319 3.2 6.4 0.00 0.00 0.00 34 1023.6
20260502120454 23 163 0.0 3.2 0.00 0.00 0.00 34 1023.7
20260502115454 23 338 1.6 4.8 0.00 0.00 0.00 35 1023.8
20260502114955 23 235 8.0 12.9 0.00 0.00 0.00 35 1023.8
20260502114455 23 218 3.2 14.5 0.00 0.00 0.00 36 1023.9
20260502113955 23 270 4.8 9.7 0.00 0.00 0.00 34 1024.0
20260502113455 24 251 4.8 8.0 0.00 0.00 0.00 34 1024.2
20260502112956 23 274 1.6 4.8 0.00 0.00 0.00 36 1024.1
20260502112456 22 224 0.0 3.2 0.00 0.00 0.00 34 1024.2
20260502111956 22 228 9.7 12.9 0.00 0.00 0.00 36 1024.3
20260502111456 23 236 8.0 12.9 0.00 0.00 0.00 35 1024.4
20260502110957 23 226 3.2 6.4 0.00 0.00 0.00 34 1024.5
20260502110457 23 242 6.4 9.7 0.00 0.00 0.00 35 1024.6
20260502105957 23 242 3.2 6.4 0.00 0.00 0.00 34 1024.6
20260502105457 23 254 4.8 9.7 0.00 0.00 0.00 34 1024.7
20260502104958 22 253 3.2 6.4 0.00 0.00 0.00 35 1024.7
20260502104458 22 245 6.4 8.0 0.00 0.00 0.00 35 1024.8
20260502103958 23 241 3.2 8.0 0.00 0.00 0.00 35 1024.9
20260502103458 22 238 1.6 6.4 0.00 0.00 0.00 35 1024.9
20260502102959 22 235 4.8 14.5 0.00 0.00 0.00 35 1025.0
20260502102459 22 233 4.8 9.7 0.00 0.00 0.00 35 1025.0
20260502101959 22 255 4.8 8.0 0.00 0.00 0.00 35 1025.2
20260502101459 22 241 6.4 9.7 0.00 0.00 0.00 36 1025.2
20260502101000 22 257 3.2 4.8 0.00 0.00 0.00 36 1025.2
20260502100500 21 239 3.2 4.8 0.00 0.00 0.00 37 1025.3
20260502091502 21 285 1.6 4.8 0.00 0.00 0.00 39 1025.7
20260502091003 21 272 1.6 3.2 0.00 0.00 0.00 39 1025.7
20260502090503 20 214 3.2 8.0 0.00 0.00 0.00 40 1025.8
20260502071508 17 79 0.0 1.6 0.00 0.00 0.00 49 1026.6
20260502071033 17 65 3.2 3.2 0.00 0.00 0.00 51 1026.6
20260502071008 17 48 0.0 1.6 0.00 0.00 0.00 50 1026.5
20260502070509 17 65 3.2 3.2 0.00 0.00 0.00 51 1026.6
20260502070009 17 302 0.0 3.2 0.00 0.00 0.00 51 1026.6
20260502065509 17 262 0.0 1.6 0.00 0.00 0.00 52 1026.5
20260502065009 16 287 0.0 1.6 0.00 0.00 0.00 53 1026.6
20260502064510 16 296 1.6 1.6 0.00 0.00 0.00 55 1026.5
20260502064010 15 14 1.6 3.2 0.00 0.00 0.00 56 1026.6
20260502063510 15 299 1.6 3.2 0.00 0.00 0.00 56 1026.5
20260502063010 15 300 0.0 1.6 0.00 0.00 0.00 55 1026.6
20260502062511 15 294 1.6 3.2 0.00 0.00 0.00 55 1026.6
20260502062011 14 298 1.6 1.6 0.00 0.00 0.00 58 1026.6
20260502061511 13 284 0.0 3.2 0.00 0.00 0.00 60 1026.6
20260502061011 13 289 3.2 4.8 0.00 0.00 0.00 60 1026.6
20260502060512 13 301 1.6 3.2 0.00 0.00 0.00 61 1026.7
20260502060012 13 292 1.6 1.6 0.00 0.00 0.00 61 1026.7
20260502055512 12 292 1.6 3.2 0.00 0.00 0.00 62 1026.7
20260502055012 12 290 3.2 4.8 0.00 0.00 0.00 62 1026.7
20260502054513 12 293 1.6 3.2 0.00 0.00 0.00 62 1026.7
20260502054013 12 296 0.0 1.6 0.00 0.00 0.00 62 1026.6
20260502053513 11 296 1.6 3.2 0.00 0.00 0.00 65 1026.7
20260502053013 11 300 0.0 4.8 0.00 0.00 0.00 66 1026.8
20260502052514 11 287 1.6 3.2 0.00 0.00 0.00 65 1026.8
20260502052014 11 295 1.6 3.2 0.00 0.00 0.00 66 1026.8
20260502051514 11 300 1.6 3.2 0.00 0.00 0.00 65 1026.8
20260502051014 11 300 0.0 1.6 0.00 0.00 0.00 65 1026.7
20260502050514 11 306 1.6 1.6 0.00 0.00 0.00 65 1026.6
20260502050015 11 306 0.0 0.0 0.00 0.00 0.00 67 1026.6
20260502045515 10 306 0.0 0.0 0.00 0.00 0.00 69 1026.6
20260502045015 10 306 0.0 0.0 0.00 0.00 0.00 68 1026.5
20260502044515 10 306 0.0 1.6 0.00 0.00 0.00 69 1026.6
20260502044016 10 306 1.6 1.6 0.00 0.00 0.00 70 1026.6
20260502043516 9 306 1.6 3.2 0.00 0.00 0.00 70 1026.5
20260502043117 9 322 1.6 1.6 0.00 0.00 0.00 71 1026.5
20260502043016 9 322 1.6 1.6 0.00 0.00 0.00 71 1026.5
20260502042516 8 322 0.0 1.6 0.00 0.00 0.00 72 1026.5
20260502042017 8 322 1.6 1.6 0.00 0.00 0.00 72 1026.5
20260502041517 8 322 1.6 1.6 0.00 0.00 0.00 74 1026.6
20260502041017 8 18 0.0 1.6 0.00 0.00 0.00 73 1026.6
20260502040517 8 294 0.0 0.0 0.00 0.00 0.00 74 1026.6
20260502040018 8 294 0.0 1.6 0.00 0.00 0.00 74 1026.7
20260502035518 8 294 0.0 0.0 0.00 0.00 0.00 74 1026.7
20260502035149 8 294 0.0 0.0 0.00 0.00 0.00 75 1026.5
20260502035018 8 294 0.0 0.0 0.00 0.00 0.00 74 1026.6
20260502034517 8 294 0.0 0.0 0.00 0.00 0.00 75 1026.5
20260502034017 8 294 0.0 0.0 0.00 0.00 0.00 75 1026.5
20260502033517 8 294 0.0 0.0 0.00 0.00 0.00 76 1026.5
20260502033017 8 294 0.0 0.0 0.00 0.00 0.00 75 1026.5
20260502032517 8 294 0.0 0.0 0.00 0.00 0.00 74 1026.5
20260502032017 8 294 0.0 0.0 0.00 0.00 0.00 74 1026.5
20260502031517 8 294 0.0 0.0 0.00 0.00 0.00 73 1026.5
20260502031017 8 294 0.0 0.0 0.00 0.00 0.00 73 1026.6
20260502030517 8 294 0.0 0.0 0.00 0.00 0.00 74 1026.6
20260502030017 8 294 0.0 0.0 0.00 0.00 0.00 74 1026.7
20260502025517 9 294 0.0 0.0 0.00 0.00 0.00 73 1026.6
20260502025017 9 294 0.0 0.0 0.00 0.00 0.00 73 1026.6
20260502024516 9 294 0.0 0.0 0.00 0.00 0.00 73 1026.7
20260502024016 9 294 0.0 0.0 0.00 0.00 0.00 71 1026.7
20260502023516 10 294 0.0 0.0 0.00 0.00 0.00 71 1026.7
20260502023016 10 294 0.0 0.0 0.00 0.00 0.00 71 1026.7
20260502022516 10 294 0.0 0.0 0.00 0.00 0.00 69 1026.7
20260502022016 10 294 0.0 0.0 0.00 0.00 0.00 67 1026.8
20260502021516 10 294 1.6 1.6 0.00 0.00 0.00 66 1026.8
20260502021016 10 294 0.0 1.6 0.00 0.00 0.00 67 1026.7
20260502020516 10 294 0.0 0.0 0.00 0.00 0.00 68 1026.7
20260502020016 10 294 0.0 0.0 0.00 0.00 0.00 67 1026.6
20260502015516 10 294 0.0 0.0 0.00 0.00 0.00 65 1026.7
20260502015015 10 294 1.6 1.6 0.00 0.00 0.00 65 1026.7
20260502014515 10 267 0.0 0.0 0.00 0.00 0.00 68 1026.7
20260502014015 10 267 0.0 0.0 0.00 0.00 0.00 68 1026.6
20260502013515 10 267 0.0 0.0 0.00 0.00 0.00 69 1026.5
20260502013015 10 267 0.0 0.0 0.00 0.00 0.00 68 1026.6
20260502012515 10 267 0.0 0.0 0.00 0.00 0.00 68 1026.6
20260502012015 10 267 0.0 0.0 0.00 0.00 0.00 67 1026.6
20260502011515 10 267 0.0 0.0 0.00 0.00 0.00 67 1026.5
20260502011015 10 267 0.0 1.6 0.00 0.00 0.00 65 1026.5
20260502010515 10 267 0.0 1.6 0.00 0.00 0.00 66 1026.6
20260502005515 10 267 0.0 0.0 0.00 0.00 0.00 66 1026.6
20260502005014 10 267 0.0 0.0 0.00 0.00 0.00 65 1026.7
20260502004514 10 267 0.0 0.0 0.00 0.00 0.00 61 1026.6
20260502004014 10 267 0.0 0.0 0.00 0.00 0.00 64 1026.5
20260502003514 10 267 0.0 0.0 0.00 0.00 0.00 63 1026.6
20260502003014 10 267 0.0 0.0 0.00 0.00 0.00 63 1026.7
20260502002514 10 267 0.0 0.0 0.00 0.00 0.00 62 1026.7
20260502002014 10 267 0.0 0.0 0.00 0.00 0.00 65 1026.8
20260502001514 10 267 0.0 0.0 0.00 0.00 0.00 64 1026.8
20260502001014 10 267 0.0 0.0 0.00 0.00 0.00 62 1026.9
20260502000514 10 267 0.0 0.0 0.00 0.00 0.00 62 1026.7
20260502000014 11 267 0.0 0.0 0.00 0.00 0.00 64 1026.8
20260501235514 11 267 0.0 0.0 0.00 0.00 0.00 60 1026.8
20260501235013 11 267 0.0 0.0 0.00 0.00 0.00 62 1026.8
20260501234513 11 267 0.0 0.0 0.00 0.00 0.00 63 1026.9
20260501234013 11 267 0.0 0.0 0.00 0.00 0.00 63 1026.8
20260501233513 10 267 0.0 0.0 0.00 0.00 0.00 63 1026.7
20260501233013 10 267 0.0 0.0 0.00 0.00 0.00 65 1026.8
20260501232513 10 267 0.0 0.0 0.00 0.00 0.00 62 1026.7